This demonstration page uses our WeatherBlox Daily Observations layout. Learn more.

Left ArrowRight Arrow

39.29038, -76.61219

Hourly Observations for February 5, 2019

Temp ( °F °C ) Dew Point ( °F °C ) Humidity (%) Winds ( mph kmh ) Pressure ( in mb ) Visibility ( mi km ) Precip ( " mm )
12:54 am 00:54 undefined 38 3.3 33 0.6 83 83 undefined N/A 29.98 1015 N/A N/A
1:54 am 01:54 undefined 39 3.9 33 0.6 79 79 undefined N/A 29.97 1015 N/A N/A
2:54 am 02:54 undefined 40 4.4 34 1.1 79 79 undefined N/A 29.98 1015 N/A N/A
3:54 am 03:54 undefined 40 4.4 34 1.1 79 79 undefined N/A 29.98 1015 N/A N/A
4:54 am 04:54 undefined 38 3.3 34 1.1 86 86 undefined N/A 29.98 1015 N/A N/A
5:54 am 05:54 undefined 39 3.9 33 0.6 79 79 undefined N/A 29.98 1015 N/A N/A
6:54 am 06:54 undefined 40 4.4 34 1.1 79 79 undefined N/A 29.99 1016 N/A N/A
7:54 am 07:54 undefined 44 6.7 36 2.2 73 73 undefined N/A 30.00 1016 N/A N/A
8:54 am 08:54 undefined 44 6.7 36 2.2 73 73 undefined N/A 30.03 1017 N/A N/A
9:54 am 09:54 undefined 51 10.6 39 3.9 64 64 undefined N/A 30.06 1018 N/A N/A
10:54 am 10:54 undefined 56 13.3 41 5 57 57 undefined N/A 30.05 1018 N/A N/A
11:54 am 11:54 undefined 68 20 48 8.9 49 49 undefined N/A 30.02 1017 N/A N/A
12:54 pm 12:54 undefined 70 21.1 48 8.9 46 46 undefined N/A 29.98 1015 N/A N/A
1:54 pm 13:54 undefined 70 21.1 48 8.9 46 46 undefined N/A 29.96 1015 N/A N/A
2:54 pm 14:54 undefined 69 20.6 48 8.9 47 47 undefined N/A 29.94 1014 N/A N/A
3:54 pm 15:54 undefined 68 20 48 8.9 49 49 undefined N/A 29.97 1015 N/A N/A
4:54 pm 16:54 undefined 68 20 48 8.9 49 49 undefined N/A 29.99 1016 N/A N/A
5:54 pm 17:54 undefined 66 18.9 48 8.9 52 52 undefined N/A 30.01 1016 N/A N/A
6:54 pm 18:54 undefined 64 17.8 48 8.9 56 56 undefined N/A 30.03 1017 N/A N/A
7:54 pm 19:54 undefined 61 16.1 47 8.3 60 60 undefined N/A 30.04 1017 N/A N/A
8:54 pm 20:54 undefined 59 15 46 7.8 62 62 undefined N/A 30.05 1018 N/A N/A
9:54 pm 21:54 undefined 57 13.9 45 7.2 64 64 undefined N/A 30.07 1018 N/A N/A
10:54 pm 22:54 undefined 55 12.8 45 7.2 69 69 undefined N/A 30.10 1019 N/A N/A
11:54 pm 23:54 undefined 50 10 43 6.1 77 77 undefined N/A 30.11 1020 N/A N/A

Powered by AerisWeather